EW5123 Weather Reports


time (UTC)temp
F
wind
direction
speed
knots
gust
knots
rain 1hr
in
rain 24hr
in
rain mn
in
humidity
%
barometer
mb
20260510220519 68 165 0.9 4.3 0.00 0.04 0.04 30 987.7
20260510220019 69 4 0.0 3.5 0.00 0.04 0.04 29 987.7
20260510215519 69 25 0.0 3.5 0.00 0.04 0.04 29 987.8
20260510215019 68 219 0.0 2.6 0.00 0.04 0.04 29 987.8
20260510214519 68 270 0.0 2.6 0.00 0.04 0.04 30 987.9
20260510214019 68 276 0.9 3.5 0.00 0.04 0.04 30 987.9
20260510213519 68 117 0.9 3.5 0.00 0.04 0.04 30 988.0
20260510213019 67 190 0.9 4.3 0.00 0.04 0.04 33 988.0
20260510212519 66 204 2.6 7.8 0.00 0.04 0.04 31 988.0
20260510212019 66 136 1.7 7.8 0.00 0.04 0.04 32 988.0
20260510211519 67 190 0.9 6.1 0.00 0.04 0.04 32 988.0
20260510211017 67 59 0.9 5.2 0.00 0.04 0.04 28 988.0
20260510210517 65 137 1.7 5.2 0.00 0.04 0.04 28 988.2
20260510210017 66 320 1.7 7.8 0.00 0.04 0.04 29 988.3
20260510205517 66 321 0.9 7.8 0.00 0.04 0.04 28 988.3
20260510205017 67 333 0.0 2.6 0.00 0.04 0.04 29 988.3
20260510204519 66 96 0.9 3.5 0.00 0.04 0.04 30 988.4
20260510204017 65 107 0.9 4.3 0.00 0.04 0.04 30 988.4
20260510203517 66 322 0.0 4.3 0.00 0.04 0.04 29 988.4
20260510203017 67 183 0.0 2.6 0.00 0.04 0.04 29 988.6
20260510202520 65 143 0.9 3.5 0.00 0.04 0.04 29 988.5
20260510202516 64 105 0.9 6.1 0.00 0.04 0.04 30 988.5
20260510202120 65 266 0.9 3.5 0.00 0.04 0.04 29 988.4
20260510201516 65 208 0.9 6.1 0.00 0.04 0.04 31 988.5
20260510200514 65 304 1.7 7.0 0.00 0.04 0.04 30 988.5
20260510200015 64 348 1.7 7.0 0.00 0.04 0.04 31 988.5
20260510195519 63 113 0.9 5.2 0.00 0.04 0.04 38 988.6
20260510195515 65 307 0.9 5.2 0.00 0.04 0.04 33 988.5
20260510194515 64 314 2.6 7.0 0.00 0.04 0.04 37 988.7
20260510194015 62 323 4.3 8.7 0.00 0.04 0.04 37 988.6
20260510193515 63 11 2.6 8.7 0.00 0.04 0.04 36 988.7
20260510193016 65 13 0.9 6.1 0.00 0.04 0.04 35 988.7
20260510192519 64 134 0.9 4.3 0.00 0.04 0.04 37 988.7
20260510192515 64 231 0.9 4.3 0.00 0.04 0.04 37 988.7
20260510191515 62 188 1.7 7.8 0.00 0.04 0.04 37 988.7
20260510191017 61 76 0.9 3.5 0.00 0.04 0.04 37 988.7
20260510191013 62 311 1.7 7.8 0.00 0.04 0.04 38 988.9
20260510190013 61 226 1.7 5.2 0.00 0.04 0.04 39 988.9
20260510185513 62 326 1.7 5.2 0.00 0.04 0.04 36 989.0
20260510185013 61 352 0.9 5.2 0.00 0.04 0.04 39 989.0
20260510184518 60 6 2.6 6.1 0.00 0.04 0.04 39 989.0
20260510184512 60 211 0.9 4.3 0.00 0.04 0.04 41 989.0
20260510184012 60 30 1.7 6.1 0.00 0.04 0.04 37 989.1
20260510183013 60 340 1.7 6.1 0.00 0.04 0.04 39 989.0
20260510182514 59 205 1.7 5.2 0.00 0.04 0.04 39 989.1
20260510182017 59 310 2.6 6.1 0.00 0.04 0.04 42 989.2
20260510182013 59 252 1.7 5.2 0.00 0.04 0.04 39 989.2
20260510181013 59 349 1.7 6.1 0.00 0.04 0.04 42 989.3
20260510180513 59 300 1.7 5.2 0.00 0.04 0.04 40 989.3
20260510180011 58 335 1.7 5.2 0.00 0.04 0.04 43 989.3
20260510175511 58 309 1.7 7.0 0.00 0.04 0.04 44 989.3
20260510175015 58 340 1.7 5.2 0.00 0.04 0.04 47 989.2
20260510175011 58 20 1.7 7.0 0.00 0.04 0.04 45 989.3
20260510174008 58 46 2.6 5.2 0.00 0.04 0.04 46 989.3
20260510173508 58 314 1.7 6.1 0.00 0.04 0.04 47 989.3
20260510173008 58 344 0.9 6.1 0.00 0.04 0.04 45 989.5
20260510172509 58 311 0.9 5.2 0.00 0.04 0.04 49 989.5
20260510172008 57 144 0.9 5.2 0.00 0.04 0.04 49 989.5
20260510171513 57 321 0.9 5.2 0.00 0.04 0.04 49 989.5
20260510171509 57 313 1.7 5.2 0.00 0.04 0.04 50 989.5
20260510170509 57 29 0.0 2.6 0.00 0.04 0.04 57 989.5
20260510170009 56 212 0.9 3.5 0.00 0.04 0.04 56 989.6
20260510165508 55 180 0.0 3.5 0.00 0.04 0.04 59 989.5
20260510165008 56 240 0.0 2.6 0.00 0.04 0.04 57 989.3
20260510164508 55 217 0.9 4.3 0.00 0.04 0.04 59 989.3
20260510164009 55 261 0.9 4.3 0.00 0.04 0.04 61 989.5
20260510163509 55 132 0.9 4.3 0.00 0.04 0.04 60 989.3
20260510163013 54 145 0.9 3.5 0.00 0.04 0.04 62 989.3
20260510163008 55 216 0.0 2.6 0.00 0.04 0.04 62 989.3
20260510162009 53 218 0.9 3.5 0.00 0.04 0.04 62 989.3
20260510161508 53 191 0.0 2.6 0.00 0.04 0.04 66 989.5
20260510161008 53 149 0.0 2.6 0.00 0.04 0.04 67 989.3
20260510160508 53 308 0.9 3.5 0.00 0.04 0.04 67 989.3
20260510160009 53 232 0.0 3.5 0.00 0.04 0.04 68 989.3
20260510155509 52 334 0.0 2.6 0.00 0.04 0.04 70 989.3
20260510155009 52 234 0.0 2.6 0.00 0.04 0.04 70 989.5
20260510154509 53 316 0.0 1.7 0.00 0.04 0.04 67 989.5
20260510154008 52 180 0.9 2.6 0.00 0.04 0.04 72 989.6
20260510153511 52 169 0.0 2.6 0.00 0.04 0.04 71 989.7
20260510153507 52 173 0.0 2.6 0.00 0.04 0.04 72 989.6
20260510152505 52 203 0.0 0.9 0.00 0.04 0.04 71 989.7
20260510152010 50 141 0.0 0.9 0.00 0.04 0.04 77 989.7
20260510152004 51 188 0.0 1.7 0.00 0.04 0.04 72 989.7
20260510151505 50 159 0.0 1.7 0.00 0.04 0.04 75 989.7
20260510150504 49 302 0.0 0.9 0.00 0.04 0.04 78 989.7
20260510150004 49 4 0.0 0.9 0.00 0.04 0.04 81 989.7
20260510145504 48 346 0.0 0.9 0.00 0.04 0.04 83 989.7
20260510145009 46 207 0.0 0.0 0.00 0.04 0.04 86 989.7
20260510145004 47 306 0.0 0.9 0.00 0.04 0.04 84 989.7
20260510144008 46 224 0.0 1.7 0.00 0.04 0.04 86 989.7
20260510144004 46 207 0.0 0.0 0.00 0.04 0.04 86 989.6
20260510143002 45 224 0.0 1.7 0.00 0.04 0.04 86 989.7
20260510142501 46 287 0.0 0.0 0.00 0.04 0.04 88 989.7
20260510142000 45 318 0.0 0.9 0.00 0.04 0.04 89 989.6
20260510141500 45 318 0.0 1.7 0.00 0.04 0.04 88 989.7
20260510141000 45 302 0.0 2.6 0.00 0.04 0.04 89 989.6
20260510140505 44 345 0.0 0.9 0.00 0.04 0.04 90 989.6
20260510140500 45 359 0.0 2.6 0.00 0.04 0.04 90 989.6
20260510135500 44 335 0.0 1.7 0.00 0.04 0.04 90 989.6
20260510135000 44 348 0.0 1.7 0.00 0.04 0.04 90 989.6
20260510134504 44 304 0.0 0.9 0.00 0.04 0.04 91 989.3
20260510134459 44 322 0.0 1.7 0.00 0.04 0.04 90 989.5
20260510133958 44 302 0.0 0.9 0.00 0.04 0.04 91 989.5
20260510133003 44 327 0.0 0.0 0.00 0.04 0.04 92 989.5
20260510132959 44 349 0.0 0.9 0.00 0.04 0.04 91 989.5
20260510132604 44 230 0.0 0.0 0.00 0.04 0.04 92 989.3
20260510131459 43 229 0.0 0.0 0.00 0.04 0.04 92 989.5
20260510131000 43 229 0.0 0.0 0.00 0.04 0.04 92 989.5
20260510130458 43 229 0.0 0.0 0.00 0.04 0.04 92 989.5
20260510130002 43 230 0.0 0.9 0.00 0.04 0.04 92 989.3
20260510125958 43 229 0.0 0.0 0.00 0.04 0.04 92 989.3
20260510125000 43 224 0.0 0.9 0.00 0.04 0.04 93 989.2
20260510124956 43 224 0.0 0.9 0.00 0.04 0.04 92 989.2
20260510123956 43 224 0.0 0.9 0.00 0.04 0.04 93 989.1
20260510123457 43 186 0.0 0.0 0.00 0.04 0.04 93 989.1
20260510122956 43 186 0.0 0.0 0.00 0.04 0.04 93 989.1
20260510122501 43 186 0.0 0.0 0.00 0.04 0.04 93 988.9
20260510122457 43 186 0.0 0.0 0.00 0.04 0.04 93 989.0
20260510121956 43 186 0.0 0.0 0.00 0.04 0.04 93 988.9
20260510120955 43 186 0.0 0.0 0.00 0.04 0.04 93 988.9
20260510120454 43 186 0.0 0.0 0.00 0.04 0.04 93 988.9
20260510115954 43 186 0.0 0.0 0.00 0.04 0.04 93 988.7
20260510115454 43 186 0.0 0.0 0.00 0.04 0.04 93 988.6
20260510114954 43 186 0.0 0.0 0.00 0.04 0.04 93 988.6
20260510114455 43 186 0.0 0.0 0.00 0.04 0.04 93 988.6
20260510113954 43 186 0.0 0.0 0.00 0.04 0.04 93 988.5
20260510113454 42 186 0.0 0.0 0.00 0.04 0.04 93 988.4
20260510112954 42 186 0.0 0.0 0.00 0.04 0.04 93 988.5
20260510112454 43 186 0.0 0.0 0.00 0.04 0.04 93 988.5
20260510111954 42 186 0.0 0.0 0.00 0.04 0.04 93 988.5
20260510111452 42 186 0.0 0.0 0.00 0.04 0.04 93 988.5
20260510110951 42 186 0.0 0.0 0.00 0.04 0.04 93 988.5
20260510110452 42 186 0.0 0.0 0.00 0.04 0.04 93 988.5
20260510105952 42 186 0.0 0.0 0.00 0.04 0.04 93 988.5
20260510105452 42 186 0.0 0.0 0.00 0.04 0.04 93 988.5
20260510104952 42 186 0.0 0.9 0.00 0.04 0.04 93 988.5
20260510104452 42 190 0.0 0.9 0.00 0.04 0.04 93 988.5
20260510103956 42 141 0.0 0.0 0.00 0.04 0.04 93 988.5
20260510103951 42 191 0.0 0.9 0.00 0.04 0.04 93 988.5
20260510102951 42 141 0.0 0.0 0.00 0.04 0.04 93 988.4
20260510102456 42 141 0.0 0.0 0.00 0.04 0.04 93 988.3
20260510102450 42 141 0.0 0.0 0.00 0.04 0.04 93 988.4
20260510101449 42 141 0.0 0.0 0.00 0.04 0.04 93 988.3
20260510100949 42 141 0.0 0.0 0.00 0.04 0.04 93 988.2
20260510100450 42 141 0.0 0.0 0.00 0.04 0.04 93 988.2
20260510095950 42 141 0.0 0.0 0.00 0.04 0.04 93 988.2
20260510095450 42 141 0.0 0.0 0.00 0.04 0.04 93 988.2
20260510094949 42 141 0.0 0.0 0.00 0.04 0.04 93 988.3
20260510094448 42 141 0.0 0.0 0.00 0.04 0.04 93 988.3
20260510093947 42 141 0.0 0.0 0.00 0.04 0.04 93 988.2
20260510093446 42 141 0.0 0.0 0.00 0.04 0.04 93 988.2
20260510092945 42 141 0.0 0.0 0.00 0.04 0.04 93 988.2
20260510092445 42 141 0.0 0.0 0.00 0.04 0.04 93 988.0
20260510091945 42 353 0.0 0.0 0.00 0.04 0.04 93 988.0
20260510091450 42 353 0.0 0.0 0.00 0.04 0.04 93 988.0
20260510091446 42 353 0.0 0.0 0.00 0.04 0.04 93 988.0
20260510090446 42 353 0.0 0.0 0.00 0.04 0.04 93 988.0
20260510085946 42 353 0.0 0.0 0.00 0.04 0.04 93 987.9
20260510085446 42 353 0.0 0.0 0.00 0.04 0.04 93 987.9
20260510084946 42 353 0.0 0.9 0.00 0.04 0.04 92 987.9
20260510084451 42 353 0.0 0.9 0.00 0.04 0.04 92 987.9
20260510084446 42 353 0.0 0.9 0.00 0.04 0.04 92 987.9
20260510083445 42 353 0.0 0.9 0.00 0.04 0.04 92 987.9
20260510082945 42 316 0.0 0.9 0.01 0.04 0.04 92 988.0
20260510082445 42 316 0.0 0.9 0.01 0.04 0.04 92 987.9
20260510081946 42 313 0.0 1.7 0.01 0.04 0.04 92 987.9
20260510081446 42 331 0.0 1.7 0.01 0.04 0.04 92 987.9
20260510080950 42 326 0.0 0.0 0.01 0.04 0.04 93 987.8
20260510080946 42 323 0.0 1.7 0.01 0.04 0.04 93 987.9
20260510075946 42 326 0.0 0.0 0.01 0.04 0.04 92 987.8
20260510075445 42 326 0.0 0.0 0.01 0.04 0.04 92 987.8
20260510074945 42 326 0.0 0.0 0.01 0.04 0.04 92 987.9
20260510074446 42 326 0.0 1.7 0.01 0.04 0.04 92 987.8
20260510073949 42 15 0.9 4.3 0.01 0.03 0.03 92 987.8
20260510073945 42 325 0.0 1.7 0.01 0.04 0.04 92 987.8
20260510073549 42 356 0.0 2.6 0.01 0.04 0.04 92 987.8
20260510072444 42 349 0.9 4.3 0.01 0.03 0.03 92 987.8
20260510071944 42 354 0.9 4.3 0.02 0.03 0.03 92 987.8
20260510071441 42 14 1.7 6.1 0.03 0.03 0.03 92 987.9
20260510070941 42 354 1.7 6.1 0.03 0.03 0.03 91 987.8
20260510070441 42 324 0.9 3.5 0.03 0.03 0.03 91 988.2
20260510065945 42 309 1.7 5.2 0.03 0.03 0.03 91 988.3
20260510065941 43 338 1.7 5.2 0.03 0.03 0.03 91 988.4
20260510064939 43 294 1.7 4.3 0.03 0.03 0.03 91 988.3
20260510064436 43 4 1.7 4.3 0.03 0.03 0.03 91 988.3
20260510063935 43 329 1.7 6.1 0.03 0.03 0.03 90 988.2
20260510063439 43 344 1.7 5.2 0.02 0.02 0.02 89 988.0
20260510063435 43 333 1.7 6.1 0.03 0.03 0.03 90 988.2
20260510063041 43 348 2.6 6.1 0.02 0.02 0.02 88 988.0
20260510061933 44 327 2.6 6.1 0.01 0.01 0.01 87 988.0
20260510061431 44 359 1.7 6.1 0.00 0.00 0.00 87 987.7
20260510060931 44 356 2.6 6.1 0.00 0.00 0.00 87 988.2
20260510060431 44 314 1.7 6.1 0.00 0.00 0.00 86 988.3
20260510055930 44 338 1.7 4.3 0.00 0.00 0.00 86 988.3
20260510055430 44 310 1.7 6.1 0.00 0.00 0.00 86 988.0
20260510054930 44 18 2.6 6.1 0.00 0.00 0.00 85 988.0
20260510054431 44 351 2.6 7.8 0.00 0.00 0.00 85 987.9
20260510053930 44 5 2.6 10.4 0.00 0.00 0.00 85 987.9
20260510053430 44 328 2.6 10.4 0.00 0.00 0.00 85 987.9
20260510052930 45 7 2.6 6.1 0.00 0.00 0.00 85 987.7
20260510052435 45 311 2.6 8.7 0.00 0.00 0.00 84 987.4
20260510052431 45 329 2.6 8.7 0.00 0.00 0.00 85 987.2
20260510051432 45 18 1.7 6.1 0.00 0.00 0.00 85 987.8
20260510050930 45 296 2.6 6.1 0.00 0.00 0.00 84 987.8
20260510050430 45 324 2.6 6.1 0.00 0.00 0.00 84 987.6
20260510045930 45 328 3.5 7.8 0.00 0.00 0.00 84 987.6
20260510045430 45 328 2.6 7.8 0.00 0.00 0.00 84 987.4
20260510044928 45 318 2.6 6.1 0.00 0.00 0.00 84 987.3
20260510044432 45 354 2.6 7.0 0.00 0.00 0.00 84 987.4
20260510044428 45 23 2.6 6.1 0.00 0.00 0.00 84 987.3
20260510043429 46 338 2.6 7.0 0.00 0.00 0.00 83 987.8
20260510042927 46 342 2.6 9.6 0.00 0.00 0.00 83 987.8
20260510042432 46 292 3.5 9.6 0.00 0.00 0.00 81 987.6
20260510042428 46 14 3.5 9.6 0.00 0.00 0.00 81 987.6
20260510041428 46 354 4.3 9.6 0.00 0.00 0.00 80 987.7
20260510040928 47 314 3.5 9.6 0.00 0.00 0.00 78 987.9
20260510040428 47 316 3.5 11.3 0.00 0.00 0.00 76 987.7
20260510035926 47 60 5.2 13.0 0.00 0.00 0.00 76 987.8
20260510035426 47 19 6.1 13.9 0.00 0.00 0.00 77 987.9
20260510034926 47 330 7.0 13.9 0.00 0.00 0.00 76 987.9
20260510034426 47 314 6.1 14.8 0.00 0.00 0.00 76 987.8
20260510033926 47 14 6.1 14.8 0.00 0.00 0.00 76 987.4
20260510033426 47 334 6.1 11.3 0.00 0.00 0.00 76 987.3
20260510032924 47 341 6.1 13.9 0.00 0.00 0.00 76 987.2
20260510032425 48 331 6.1 15.6 0.00 0.00 0.00 76 987.1
20260510031927 48 342 4.3 15.6 0.00 0.00 0.00 75 987.1
20260510031923 48 342 6.1 14.8 0.00 0.00 0.00 75 986.6
20260510031526 48 349 5.2 14.8 0.00 0.00 0.00 75 986.9
20260510030422 48 314 6.1 12.2 0.00 0.00 0.00 75 986.3
20260510025922 48 304 7.0 16.5 0.00 0.00 0.00 74 986.0
20260510025422 49 326 7.0 16.5 0.00 0.00 0.00 73 985.8
20260510024922 49 8 6.1 13.9 0.00 0.00 0.00 73 985.7
20260510024422 49 327 6.1 13.9 0.00 0.00 0.00 72 985.3
20260510023921 50 347 6.1 14.8 0.00 0.00 0.00 70 985.1
20260510023426 51 349 7.0 15.6 0.00 0.00 0.00 66 984.5
20260510023422 50 8 6.1 14.8 0.00 0.00 0.00 68 984.8
20260510022420 52 344 7.0 15.6 0.00 0.00 0.00 64 984.3
20260510021920 53 319 6.1 13.9 0.00 0.00 0.00 60 984.0
20260510021420 54 319 7.8 14.8 0.00 0.00 0.00 57 983.8
20260510020920 55 38 7.0 15.6 0.00 0.00 0.00 54 983.5
20260510020424 57 18 8.7 17.4 0.00 0.00 0.00 48 983.3
20260510020420 56 329 7.8 15.6 0.00 0.00 0.00 50 983.4
20260510015420 60 345 6.1 19.1 0.00 0.00 0.00 44 982.4
20260510014920 63 321 1.7 19.1 0.00 0.00 0.00 37 981.2
20260510014419 63 324 0.9 3.5 0.00 0.00 0.00 33 980.6
20260510013920 63 352 0.0 2.6 0.00 0.00 0.00 32 980.2
20260510013419 63 335 0.0 1.7 0.00 0.00 0.00 32 980.1
20260510012920 64 356 0.0 0.9 0.00 0.00 0.00 31 980.0
20260510012421 64 342 0.0 0.9 0.00 0.00 0.00 31 979.9
20260510011917 64 338 0.0 1.7 0.00 0.00 0.00 31 979.9
20260510011418 64 354 0.0 1.7 0.00 0.00 0.00 29 979.9
20260510010922 65 341 0.0 2.6 0.00 0.00 0.00 30 979.8
20260510010918 64 328 0.0 2.6 0.00 0.00 0.00 30 979.8
20260510005917 65 345 0.0 1.7 0.00 0.00 0.00 29 979.6
20260510005417 65 334 0.0 3.5 0.00 0.00 0.00 28 979.5
20260510004922 66 0 0.9 3.5 0.00 0.00 0.00 26 979.3
20260510004918 65 359 0.9 3.5 0.00 0.00 0.00 27 979.4
20260510004523 66 357 0.9 3.5 0.00 0.00 0.00 26 979.3
20260510003417 66 11 0.9 2.6 0.00 0.00 0.00 27 979.3
20260510002918 66 359 0.9 3.5 0.00 0.00 0.00 25 979.2
20260510002417 66 356 1.7 3.5 0.00 0.00 0.00 25 979.2
20260510001921 66 341 0.9 4.3 0.00 0.00 0.00 24 979.1
20260510001917 66 357 1.7 4.3 0.00 0.00 0.00 24 979.1
20260510000418 67 4 1.7 4.3 0.00 0.00 0.00 24 978.9
20260509235922 67 345 1.7 5.2 0.00 0.00 0.00 24 979.1
20260509235918 67 18 1.7 5.2 0.00 0.00 0.00 23 978.9
20260509234917 67 1 0.9 4.3 0.00 0.00 0.00 23 979.1
20260509234417 67 15 0.0 3.5 0.00 0.00 0.00 23 979.1
20260509233917 67 203 0.0 0.9 0.00 0.00 0.00 22 978.9
20260509233418 67 207 0.0 1.7 0.00 0.00 0.00 22 978.9
20260509232918 68 304 0.9 3.5 0.00 0.00 0.00 23 978.9
20260509232418 68 338 1.7 4.3 0.00 0.00 0.00 22 978.8
20260509231917 68 359 1.7 6.1 0.00 0.00 0.00 22 978.9
20260509231419 69 347 2.6 9.6 0.00 0.00 0.00 24 979.1
20260509231415 69 337 1.7 6.1 0.00 0.00 0.00 23 978.9
20260509230415 69 32 3.5 9.6 0.00 0.00 0.00 25 979.1
20260509225916 69 326 2.6 8.7 0.00 0.00 0.00 24 979.1
20260509225415 69 309 1.7 6.1 0.00 0.00 0.00 24 979.1
20260509224913 69 342 1.7 6.1 0.00 0.00 0.00 23 978.9
20260509224414 69 345 1.7 6.1 0.00 0.00 0.00 24 978.9
20260509223913 70 319 1.7 7.8 0.00 0.00 0.00 23 978.9
20260509223417 70 337 2.6 10.4 0.00 0.00 0.00 23 978.6
20260509223413 70 356 2.6 7.8 0.00 0.00 0.00 23 978.8
20260509222413 71 304 2.6 10.4 0.00 0.00 0.00 24 978.6
20260509221914 71 200 1.7 9.6 0.00 0.00 0.00 23 978.7
20260509221414 71 6 0.9 4.3 0.00 0.00 0.00 23 978.7